Location: C�mpuri de-Sus
(45.9500°N, 22.5500°E)
Time: 05:55:33
(UTC+00:00)

Okean-O - Pass Details

Date: 24 October 2021
Orbit: 639 x 640 km, 98.2° (Epoch: 04 December)

Event Time Altitude Azimuth Distance (km) Brightness Sun altitude
Exits shadow 18:02:46 56° 246° (WSW) 763 3.1 -27.4°
Maximum altitude 18:02:59 57° 259° (W) 758 3.1 -27.5°
Drops below altitude 10° 18:07:22 10° 339° (NNW) 2,043 5.6 -28.2°
Sets 18:09:37 0° 343° (NNW) 2,957 6.4 -28.6°
